Regional Weather Roundup
Issued by NWS Upton, NY

Current Version | Previous Version | Graphics & Text | Print | Product List | Glossary Off
Versions: 1 2 3 4 5 6 7 8 9 10 11 12 13 14 15 16 17 18 19 20 21 22 23 24 25 26 27 28 29 30 31 32 33 34 35 36 37 38 39 40 41 42 43 44 45 46 47 48 49 50
000 ASUS41 KOKX 290508 RWROKX REGIONAL WEATHER ROUNDUP NATIONAL WEATHER SERVICE NEW YORK NY 100 AM EDT WED JUL 29 2015 NOTE: "FAIR" INDICATES FEW OR NO CLOUDS BELOW 12,000 FEET WITH NO SIGNIFICANT WEATHER AND/OR OBSTRUCTIONS TO VISIBILITY. NYZ071-072-176-178-NJZ106-104-290600- NEW YORK CITY METRO AREA CITY SKY/WX TMP DP RH WIND PRES REMARKS CENTRAL PARK CLEAR 81 69 67 CALM 30.01R LAGUARDIA APRT CLEAR 82 70 66 SW9 29.97R KENNEDY INTL PTCLDY 78 71 79 SW7 29.99R NEWARK/LIBERTY CLEAR 80 70 71 SW9 29.98R BRNX BOT. GARD N/A 79 70 73 W1 30.00R TETERBORO CLEAR 79 70 74 S5 29.97R $$ NYZ177-179-078>081-290600- LONG ISLAND NEW YORK CITY SKY/WX TMP DP RH WIND PRES REMARKS FARMINGDALE CLEAR 78 72 81 W6 29.98S ISLIP CLEAR 75 72 90 CALM 29.96S SHIRLEY CLEAR 75 71 87 W5 29.98S WESTHAMPTON CLEAR 70 69 97 CALM 29.99S FOG MONTAUK POINT N/A 76 71 85 W5 29.98S $$ NYZ052-065-067-290600- HUDSON VALLEY CITY SKY/WX TMP DP RH WIND PRES REMARKS WHITE PLAINS CLEAR 73 69 87 CALM 29.99S NEWBURGH CLEAR 73 68 83 CALM 30.01R MONTGOMERY CLEAR 69 66 90 CALM 30.00R POUGHKEEPSIE CLEAR 71 68 90 CALM 29.98R ALBANY PTCLDY 77 62 59 S6 29.97S $$ NJZ001-105-106-008-010-013-015-019>022-104-290600- NEW JERSEY CITY SKY/WX TMP DP RH WIND PRES REMARKS NEWARK/LIBERTY CLEAR 80 70 71 SW9 29.98R TETERBORO CLEAR 79 70 74 S5 29.97R CALDWELL CLEAR 75 63 66 CALM 30.00R MORRISTOWN CLEAR 68 64 88 CALM 30.00R SOMERVILLE CLEAR 69 66 90 NW3 29.98S SUSSEX CLEAR 69 65 86 CALM 30.01R ANDOVER N/A 67 66 97 CALM 30.02R TRENTON CLEAR 76 71 85 CALM 29.99S MILLVILLE CLEAR 73 70 90 CALM 30.00S FOG ATLANTIC CITY CLEAR 75 72 90 SW3 30.00S WRIGHTSTOWN CLEAR 74 71 91 SW3 29.97S TOMS RIVER CLEAR 70 66 88 W3 30.00S BELMAR CLEAR 73 66 78 W3 30.00R $$ PAZ047>061-062-071-290600- EASTERN PENNSYLVANIA CITY SKY/WX TMP DP RH WIND PRES REMARKS PHILADELPHIA PTCLDY 80 73 79 SW5 30.00S ALLENTOWN CLEAR 71 67 87 CALM 30.01R SCRANTON CLEAR 71 63 75 E6 30.04R $$ CTZ002-004>006-009-010-012-RIZ004-006-007-MAZ004-011-015-290600- SOUTHERN NEW ENGLAND IN CT CITY SKY/WX TMP DP RH WIND PRES REMARKS BRADLEY INTL PTCLDY 71 67 87 W5 29.97S HARTFORD CLEAR 73 68 84 S3 29.97S DANBURY CLEAR 69 64 84 SW3 30.01S WTRBRY/OXFORD CLEAR 72 63 73 CALM 30.02S BRIDGEPORT CLEAR 78 72 81 W5 29.97S MERIDEN CLEAR 71 66 84 CALM 29.98S NEW HAVEN CLEAR 74 71 91 CALM 29.97F CHESTER FAIR 73 70 88 W3 30.00R GROTON PTCLDY 71 68 90 CALM 29.96S WILLIMANTIC CLEAR 72 68 87 CALM 29.98S IN RI CITY SKY/WX TMP DP RH WIND PRES REMARKS PROVIDENCE CLEAR 71 68 90 SW3 29.96F BLOCK ISLAND PTCLDY 72 72 100 W8 29.97F WESTERLY PTCLDY 70 68 93 CALM 29.97S FOG IN MA CITY SKY/WX TMP DP RH WIND PRES REMARKS BOSTON CLEAR 73 67 81 S6 29.95F WORCESTER CLEAR 69 62 78 W7 30.00F WESTFIELD CLEAR 69 67 93 CALM 29.98S PROVINCETOWN CLEAR 70 63 78 SW7 29.95F NANTUCKET FOG 72 71 97 W8 29.96S VSB 1/4 $$ ANZ330-335-338-340-345-350-353-355-290600- COASTAL MARINE OBSERVATIONS STATION/POSITION TIME SKY/WX TEMP WIND PRES VSBY WAVE AIR SEA DIR/SP/G HT/PER (UTC) (F) (DEG/KT/KT) (MB) (MI) (FT/S) NY HARB ENTRANCE 0450 77 76 230/ 12/ 14 1014.8 2/11 4S FIRE IS NOT AVBL 20S FIRE ISLAND 0450 76 74 240/ 8/ 8 1014.9 2/ 9 GREAT SOUTH BAY 0400 79 80 250/ 6/ 10 N/A 23SW MTP 0450 75 75 250/ 10/ 12 1014.4 2/ 7 HUDSON CANYON NOT AVBL KINGS POINT 0400 80 69 190/ 4/ 5 1014.3 CENTRAL LI SOUND NOT AVBL EASTERN LI SOUND 0400 71 68 290/ 6/ 6 N/A ROBBINS REEF 0400 78 180/ 7/ 8 1014.1 $$ >>>>>>>>>>>>>>>>>>>>>>>>>>>> KEY <<<<<<<<<<<<<<<<<<<<<<<<<<< > < > SKY/WX - SKY CONDITION/PRESENT WEATHER < > TMP - TEMPERATURE IN FAHRENHEIT < > DP - DEWPOINT IN FAHRENHEIT < > RH - RELATIVE HUMIDITY IN PERCENT < > WIND - DIRECTION AND SPEED IN MPH < > PRES - MEAN SEA LEVEL PRESSURE IN INCHES OF HG < > WCI - WIND CHILL INDEX < > VSB - VISIBILITY IN MILES < > HX - HEAT INDEX < > TC - TEMPERATURE IN CELSIUS < > VRB - VARIABLE WIND DIRECTION < > < >>>>>>>>>>>>>>>>>>>>>>>>>>>> KEY <<<<<<<<<<<<<<<<<<<<<<<<<<<

USA.gov is the U.S. government's official web portal to all federal, state and local government web resources and services.